Wind_Speed
5 5 4 3 2 3 3 3 2 1 1 2 2 3 3 3 3 3 3 3 3 4 4 5 5 5 6 5 5 5 4 3 3 3 3 4 4 5 5 5 6 7 8
5 4 3 2 2 2 3 3 2 2 1 0 1 1 1 1 1 0 1 1 2 3 3 4 4 4 4 4 4 3 3 2 2 2 2 3 4 5 5 5 5 7 8
4 4 4 3 2 2 3 3 3 3 3 2 2 2 2 2 3 3 3 4 4 4 4 4 5 4 4 4 3 2 1 1 1 2 2 3 4 4 5 5 5 6 7
4 5 5 5 4 5 5 5 5 5 5 5 5 5 5 5 6 6 6 6 6 6 6 6 6 6 6 5 4 3 2 1 1 2 3 3 4 4 5 5 4 5 7
5 6 7 7 7 7 7 7 8 8 8 8 8 8 8 8 8 8 8 8 8 8 8 8 8 8 8 8 6 5 4 3 3 3 4 4 4 5 5 5 5 5 6
7 8 8 9 10 10 11 11 11 11 11 10 11 10 11 10 10 10 10 10 9 9 9 9 10 10 10 10 9 8 7 7 6 6 6 6 5 6 6 7 7 6 6
9 10 11 12 12 13 13 13 13 12 12 12 12 12 12 12 12 12 11 11 11 11 10 10 11 11 11 11 11 11 11 10 10 9 8 8 7 7 8 8 8 8 8
12 13 14 14 15 15 15 15 15 15 15 15 15 15 14 14 14 13 13 12 12 12 11 11 11 12 12 13 13 13 13 13 14 13 12 11 10 10 10 10 10 10 10
16 16 17 18 18 19 19 19 18 18 18 18 18 17 17 16 16 16 15 14 14 13 13 13 14 14 14 14 14 14 15 16 16 16 15 14 14 13 12 12 12 12 12
19 19 20 21 21 21 21 22 22 21 21 22 21 20 21 20 19 19 18 17 16 16 15 15 15 15 15 15 15 15 16 15 17 18 18 18 17 16 16 15 14 14 14
21 21 22 23 24 24 24 24 24 24 24 25 24 24 24 24 23 22 21 19 18 18 17 17 16 16 16 17 17 16 16 17 18 19 20 21 21 20 19 18 17 16 16
22 23 23 24 24 25 25 25 25 26 26 26 26 26 25 24 23 23 23 21 20 20 19 19 19 19 18 18 18 17 17 17 17 19 20 22 23 24 23 21 20 19 18
23 23 23 23 24 24 24 24 24 24 24 24 24 23 23 23 22 22 23 23 22 22 21 21 21 21 21 20 20 19 19 18 18 18 19 21 23 27 27 25 24 22 21
23 23 23 22 22 21 22 21 20 21 21 22 22 21 21 21 21 22 22 22 23 23 22 22 22 22 22 22 21 21 20 20 20 20 20 21 23 25 29 30 28 26 25
23 23 22 21 20 20 19 19 19 19 20 19 19 20 21 21 21 22 22 22 23 23 24 24 24 24 24 24 24 23 22 22 22 22 21 22 23 25 28 32 32 30 29
22 22 21 20 18 18 19 19 19 19 19 19 19 20 21 21 22 23 23 24 24 25 26 26 27 27 26 26 26 25 24 24 23 23 23 23 24 25 27 31 34 33 32
20 19 18 17 17 17 17 17 17 18 18 19 20 21 21 22 23 24 24 25 25 26 27 27 28 28 28 27 27 27 26 25 25 25 25 25 25 25 26 30 34 36 35
17 15 14 14 14 15 15 16 17 17 18 19 20 20 21 22 23 24 24 25 25 26 27 27 28 28 28 28 28 28 27 27 27 27 27 26 26 27 26 29 33 36 37
14 12 12 12 13 13 14 15 16 17 18 18 19 20 20 21 22 22 23 24 25 25 26 26 27 27 28 28 29 29 29 28 28 28 28 28 28 28 29 28 32 35 38
11 10 11 12 12 14 15 16 17 17 18 18 19 20 20 21 21 22 22 23 24 24 24 25 25 26 27 28 28 29 30 30 30 30 30 30 30 30 31 30 31 35 38
9 10 11 13 13 15 16 17 18 19 19 19 20 20 20 21 21 22 22 22 23 23 23 24 25 25 26 27 28 29 29 31 32 32 33 33 32 32 32 33 32 34 38
9 10 11 13 14 15 16 18 19 20 20 20 20 20 21 21 21 21 22 22 22 23 23 23 24 24 25 25 27 28 29 30 31 32 33 34 35 35 34 34 34 35 37
9 10 12 13 15 16 18 19 19 19 20 20 20 20 20 20 20 20 20 21 21 22 23 23 24 24 25 26 26 27 28 30 31 32 33 34 35 36 36 36 36 36 37
10 12 13 15 16 17 18 18 18 18 18 18 18 18 18 18 18 18 18 19 20 21 22 23 24 25 26 27 27 27 28 29 31 32 33 34 35 36 37 38 37 37 38
12 14 15 16 17 17 17 17 17 17 17 17 17 17 17 16 17 18 18 19 20 21 22 23 24 26 27 28 29 29 29 30 31 32 33 34 35 36 37 38 38 38 38
14 15 15 15 15 16 16 17 17 17 17 18 18 18 18 17 17 18 19 20 21 22 23 24 26 27 28 30 31 32 32 32 33 33 34 35 36 37 38 39 40 40 40
Wind_Direction
44 53 48 28 0 332 318 318 324 336 84 115 129 136 134 131 123 108 88 68 52 41 35 36 36 38 43 50 55 58 61 67 70 77 96 113 115 111 109 110 118 123 127
32 36 26 9 340 315 304 305 310 313 322 9 153 160 158 165 169 137 342 342 345 349 351 354 1 7 16 26 37 46 57 70 92 105 126 140 135 126 118 115 120 125 131
13 3 348 324 297 275 271 275 280 284 286 277 266 256 255 260 263 272 288 297 303 308 312 317 320 326 334 344 354 7 35 71 129 155 161 162 158 147 133 121 119 129 138
353 338 325 308 289 274 265 261 262 267 270 269 267 264 263 263 263 267 276 281 284 288 291 295 298 300 303 303 306 306 296 243 208 198 193 180 175 168 156 142 133 134 140
336 326 317 303 292 283 277 273 273 271 271 269 267 266 267 268 268 270 274 276 276 278 281 285 290 289 289 288 283 278 270 252 231 222 214 201 189 184 179 168 157 156 153
317 311 305 297 289 285 282 282 282 280 276 274 272 271 272 273 274 275 277 277 278 279 280 282 284 285 282 280 278 270 262 250 239 228 224 215 204 197 193 188 178 175 169
308 303 296 289 285 285 285 285 282 281 279 277 277 277 277 277 277 276 276 278 280 280 281 282 282 282 280 275 273 269 260 252 240 234 226 222 214 207 202 197 191 186 181
301 297 292 287 284 283 283 283 282 280 279 278 279 278 278 279 279 278 277 277 277 278 279 282 283 281 279 276 272 266 261 256 243 234 227 224 220 214 208 204 199 194 190
298 293 290 285 284 283 282 282 281 280 279 278 278 278 277 275 275 275 273 272 273 275 277 281 282 280 277 275 272 267 265 259 250 236 230 227 224 219 213 209 205 200 197
297 289 285 282 279 279 279 280 278 278 277 277 278 278 277 275 272 270 270 269 270 272 276 279 281 280 278 275 272 270 267 263 255 242 234 228 226 223 218 213 210 206 202
296 289 286 284 280 278 279 280 278 278 277 274 274 275 276 274 271 270 267 266 269 272 274 278 280 280 278 276 274 272 269 265 259 252 241 232 225 225 222 218 214 211 207
296 290 287 285 280 278 279 280 278 276 277 274 272 274 276 275 274 274 268 266 270 272 274 276 278 280 278 275 272 271 271 269 265 256 246 236 228 224 224 221 218 215 212
296 290 288 285 280 277 277 279 279 281 281 277 276 279 282 279 280 281 277 270 270 273 274 276 277 278 276 275 271 270 269 270 268 263 252 242 234 226 223 223 221 218 216
295 290 287 286 283 282 280 282 285 287 288 287 287 286 287 286 284 285 283 276 273 273 276 277 279 278 278 277 275 271 269 268 266 263 256 248 241 234 226 223 223 221 219
292 290 286 287 284 284 285 287 289 290 293 295 296 293 290 288 287 286 286 282 278 276 277 278 278 278 277 275 274 271 268 265 263 261 259 252 248 242 231 224 223 223 222
291 290 288 287 287 287 289 291 291 292 294 295 294 292 290 287 284 283 283 282 280 277 277 276 276 276 275 273 271 270 268 265 263 259 257 252 250 246 238 229 225 224 223
291 291 289 289 293 293 292 294 296 295 295 293 291 289 288 286 284 282 282 280 279 277 276 275 275 274 273 271 270 269 267 265 262 259 255 252 250 248 245 235 228 226 225
291 295 294 294 295 296 297 297 298 296 295 294 292 290 288 286 285 283 281 280 278 276 275 274 273 273 272 270 269 268 266 264 262 259 255 251 249 248 248 240 233 228 227
294 297 298 299 301 302 302 301 299 298 296 295 292 290 288 286 284 283 282 281 279 277 275 274 273 272 270 269 268 266 265 263 260 258 255 252 249 248 247 243 235 232 230
297 301 306 306 306 306 305 303 302 300 298 297 294 292 291 289 287 285 283 281 280 279 278 276 274 272 271 270 268 266 263 262 259 256 254 253 251 249 246 243 238 235 233
304 309 312 312 310 310 311 310 310 308 306 304 302 299 296 294 291 288 285 283 282 281 280 278 276 274 272 271 268 266 264 261 259 256 254 253 252 251 248 244 242 238 234
313 316 317 317 318 319 320 320 320 318 315 313 310 308 304 300 296 292 289 287 285 284 282 281 279 277 274 272 270 267 265 262 259 257 254 252 252 251 249 245 243 241 236
327 326 326 326 324 325 326 326 325 323 320 318 316 312 309 304 301 298 295 292 289 287 286 284 283 281 278 275 272 269 266 264 261 257 255 253 252 250 248 247 245 241 238
333 330 329 328 327 327 327 326 325 324 323 322 321 318 315 310 307 304 301 298 296 294 291 289 286 284 282 278 275 271 268 265 262 259 256 254 252 249 247 246 244 241 239
335 332 330 328 327 326 324 324 325 325 325 325 325 323 321 318 315 311 308 305 302 299 297 294 291 288 285 281 278 274 270 266 263 260 257 255 252 249 247 244 242 240 239
335 332 329 327 326 324 324 326 327 328 328 328 327 325 322 320 317 315 311 308 306 303 300 297 294 291 287 284 280 276 273 269 265 261 257 255 253 250 248 245 243 240 240
Height
5921 5921 5921 5920 5920 5919 5918 5918 5917 5917 5916 5916 5916 5916 5915 5915 5914 5914 5914 5913 5912 5912 5911 5911 5910 5910 5909 5908 5908 5907 5906 5905 5905 5904 5904 5904 5903 5903 5903 5902 5902 5902 5902
5921 5920 5921 5921 5920 5920 5919 5918 5917 5917 5916 5916 5916 5915 5915 5915 5914 5914 5914 5913 5912 5912 5911 5911 5910 5910 5909 5909 5908 5907 5907 5906 5906 5905 5905 5904 5904 5904 5904 5903 5903 5903 5903
5920 5919 5920 5920 5920 5920 5919 5918 5917 5916 5916 5915 5915 5915 5914 5914 5914 5913 5913 5912 5912 5912 5911 5910 5910 5910 5909 5909 5908 5908 5907 5907 5906 5905 5905 5905 5904 5905 5905 5904 5904 5904 5905
5919 5919 5919 5919 5919 5919 5919 5918 5917 5916 5915 5915 5914 5914 5913 5913 5912 5912 5912 5912 5911 5911 5910 5910 5909 5909 5909 5908 5908 5908 5907 5907 5906 5906 5905 5905 5905 5905 5905 5905 5905 5905 5906
5918 5917 5917 5917 5917 5917 5917 5917 5916 5915 5915 5914 5913 5912 5912 5911 5911 5910 5910 5910 5910 5909 5909 5909 5908 5908 5908 5907 5907 5907 5907 5907 5906 5906 5905 5905 5905 5905 5906 5906 5906 5906 5907
5917 5916 5916 5916 5915 5915 5914 5914 5914 5913 5913 5912 5911 5910 5910 5909 5909 5909 5908 5908 5908 5908 5907 5907 5907 5906 5906 5906 5906 5905 5906 5906 5906 5905 5905 5905 5905 5905 5906 5906 5907 5907 5908
5915 5914 5914 5913 5913 5912 5912 5911 5911 5910 5910 5909 5909 5908 5907 5907 5907 5906 5906 5906 5906 5905 5905 5905 5905 5904 5904 5904 5904 5904 5904 5904 5904 5904 5904 5905 5905 5905 5906 5906 5907 5907 5908
5913 5912 5911 5911 5910 5910 5909 5908 5907 5907 5906 5906 5906 5905 5904 5904 5904 5904 5903 5903 5903 5903 5903 5902 5902 5902 5902 5901 5901 5901 5901 5901 5902 5902 5903 5904 5904 5904 5905 5906 5906 5907 5908
5911 5910 5909 5908 5907 5906 5905 5905 5904 5904 5903 5903 5902 5902 5901 5901 5901 5900 5900 5900 5900 5900 5899 5899 5899 5899 5898 5898 5898 5898 5898 5898 5898 5899 5900 5902 5903 5903 5904 5905 5906 5907 5908
5908 5906 5905 5904 5903 5902 5901 5901 5900 5900 5899 5899 5898 5898 5897 5897 5896 5896 5896 5896 5896 5896 5896 5895 5895 5895 5895 5895 5895 5895 5895 5894 5895 5896 5897 5899 5901 5902 5903 5904 5905 5906 5907
5904 5903 5902 5900 5899 5898 5898 5896 5896 5895 5895 5894 5894 5893 5892 5892 5891 5890 5890 5891 5891 5891 5891 5891 5891 5891 5890 5890 5891 5891 5891 5891 5891 5892 5893 5895 5897 5899 5900 5901 5903 5904 5906
5900 5899 5898 5896 5895 5894 5893 5892 5891 5890 5889 5888 5888 5887 5887 5886 5885 5884 5884 5885 5886 5886 5886 5886 5886 5886 5885 5886 5886 5886 5886 5886 5886 5887 5888 5890 5892 5895 5897 5899 5900 5902 5904
5896 5894 5893 5892 5890 5889 5888 5887 5886 5885 5884 5883 5882 5882 5882 5881 5880 5879 5879 5879 5880 5880 5880 5880 5880 5880 5880 5880 5881 5881 5882 5882 5882 5883 5884 5885 5887 5889 5892 5894 5897 5899 5901
5892 5890 5889 5887 5886 5885 5883 5883 5882 5881 5879 5878 5877 5877 5877 5876 5875 5874 5874 5874 5874 5874 5874 5874 5875 5875 5875 5875 5875 5876 5876 5877 5877 5878 5879 5881 5882 5884 5886 5889 5892 5895 5897
5887 5886 5884 5883 5882 5881 5880 5879 5878 5877 5876 5874 5873 5873 5872 5871 5871 5869 5869 5868 5868 5869 5869 5869 5869 5869 5869 5868 5869 5870 5871 5871 5872 5873 5874 5875 5876 5878 5880 5883 5886 5889 5892
5883 5881 5880 5879 5878 5877 5876 5875 5874 5873 5872 5870 5869 5868 5867 5866 5865 5865 5864 5863 5863 5863 5863 5863 5863 5863 5863 5863 5864 5864 5864 5865 5866 5867 5868 5869 5870 5872 5874 5877 5880 5883 5887
5878 5877 5876 5875 5874 5874 5873 5871 5870 5869 5867 5866 5865 5863 5862 5861 5860 5859 5858 5858 5857 5857 5856 5856 5856 5856 5856 5857 5857 5858 5858 5859 5859 5860 5861 5863 5864 5866 5868 5870 5874 5877 5880
5875 5874 5873 5872 5871 5870 5869 5867 5866 5864 5863 5861 5860 5858 5857 5856 5854 5853 5852 5851 5851 5850 5850 5850 5850 5850 5850 5850 5850 5851 5851 5852 5853 5854 5855 5856 5858 5859 5861 5864 5867 5870 5874
5871 5871 5870 5869 5868 5867 5865 5864 5862 5860 5858 5857 5855 5853 5852 5850 5849 5847 5846 5845 5844 5844 5843 5843 5843 5842 5842 5842 5843 5843 5844 5845 5846 5847 5848 5849 5851 5853 5854 5856 5859 5862 5866
5869 5868 5867 5866 5865 5863 5862 5860 5858 5856 5854 5852 5850 5848 5846 5845 5843 5841 5840 5839 5838 5837 5836 5836 5835 5835 5835 5835 5835 5836 5836 5837 5838 5839 5841 5842 5843 5845 5847 5849 5852 5855 5858
5866 5865 5864 5863 5861 5860 5858 5855 5853 5851 5849 5847 5845 5843 5840 5839 5837 5835 5834 5833 5832 5831 5830 5829 5829 5828 5828 5828 5828 5828 5829 5829 5830 5831 5833 5834 5835 5837 5839 5841 5844 5847 5850
5862 5862 5860 5859 5857 5856 5853 5851 5848 5846 5843 5841 5839 5837 5834 5832 5831 5829 5827 5826 5825 5824 5823 5823 5822 5821 5821 5821 5820 5820 5821 5822 5822 5823 5824 5826 5827 5829 5831 5833 5835 5838 5841
5860 5859 5857 5856 5854 5852 5849 5846 5844 5841 5839 5836 5834 5832 5829 5827 5825 5823 5822 5820 5819 5818 5817 5816 5815 5814 5813 5813 5813 5813 5813 5813 5813 5815 5816 5817 5818 5820 5822 5824 5827 5829 5832
5857 5856 5854 5852 5850 5847 5845 5843 5840 5838 5835 5832 5829 5827 5825 5822 5820 5818 5817 5815 5813 5812 5810 5809 5808 5807 5806 5805 5805 5805 5805 5805 5805 5806 5807 5808 5809 5811 5813 5815 5818 5821 5823
5854 5853 5851 5849 5847 5845 5842 5840 5837 5834 5831 5829 5826 5823 5821 5819 5816 5814 5812 5810 5808 5806 5804 5803 5801 5800 5798 5797 5797 5796 5796 5796 5796 5797 5798 5798 5800 5801 5803 5806 5809 5811 5814
5852 5850 5849 5847 5845 5843 5840 5837 5834 5831 5828 5825 5822 5820 5817 5815 5812 5810 5807 5805 5802 5800 5798 5796 5794 5792 5790 5789 5787 5787 5787 5787 5787 5787 5788 5789 5790 5792 5794 5796 5799 5802 5805